Flag for Germany Weather past 2 weeks in Heidenheim an der Brenz, Baden-Württemberg, Germany

Now
29 °F

Light snow. Low clouds.


Feels Like: 23 °F
Forecast: 28 / 37 °F
Wind: 7 mph from West

Location: Stoetten

Current Time: Jan 27, 2015 at 1:58:15 PM

Latest Report: Jan 27, 2015 at 1:00 PM


Visibility: 9 mi

Pressure: 30.22 "Hg

Humidity: 98%

Dew point: 29 °F

Location of Heidenheim an der BrenzLocation

Historic Weather in Heidenheim an der Brenz — Graph

°F

Heidenheim an der Brenz temperature yesterday

Maximum temperature yesterday: 30 °F (at 11:00 PM)
Minimum temperature yesterday: 27 °F (at 7:00 AM)
Average temperature yesterday: 28 °F

Past Weeks' High & Low Weather Summary

 TemperatureHumidityPressure
High49 °F (Jan 13, 2:00 PM)100% (Jan 14, 5:00 PM)30.46 "Hg (Jan 14, 5:00 PM)
Low26 °F (Jan 19, 9:00 AM)35% (Jan 13, 2:00 AM)29.72 "Hg (Jan 16, 4:00 PM)
Average32 °F89%30.05 "Hg
* Reported Jan 12 1:00 PM — Jan 27 1:00 PM, Heidenheim an der Brenz, Weather by CustomWeather, © 2014

Note: Actual official high and low records may vary slightly from our data, if they occured in-between our weather recording intervals... More about our weather records

Advertising

Heidenheim an der Brenz weather history for previous 24 hours

 ConditionsComfort  
Time TempWeatherWind HumidityBarometerVisibility
1:00 PM
Jan 27
29 °FLight snow. Low clouds.7 mph98%30.22 "Hg9 mi
12:00 PM29 °FLight snow. Low clouds.7 mph99%30.24 "Hg5 mi
11:00 AM29 °FFog.7 mph99%30.24 "Hg1 mi
10:00 AM29 °FLight snow. Ice fog.8 mph99%30.23 "Hg0 mi
9:00 AM29 °FFog.8 mph99%30.22 "Hg1 mi
8:00 AM29 °FLight snow. Ice fog.8 mph99%30.20 "Hg0 mi
7:00 AM30 °FLight snow. Ice fog.7 mph100%30.19 "Hg0 mi
6:00 AM30 °FLight snow. Ice fog.7 mph100%30.17 "Hg0 mi
5:00 AM30 °FDrizzle. Low clouds.7 mph100%30.17 "Hg0 mi
4:00 AM30 °FLow clouds.7 mph100%30.16 "Hg0 mi
3:00 AM30 °FHeavy rain. Low clouds.7 mph100%30.14 "Hg0 mi
2:00 AM30 °FHeavy rain. Low clouds.9 mph100%30.13 "Hg0 mi
1:00 AM29 °FLight snow. Low clouds.9 mph100%30.13 "Hg0 mi
12:00 AM30 °FLight rain. Low clouds.9 mph100%30.12 "Hg0 mi
11:00 PM
Jan 26
30 °FDrizzle. Low clouds.8 mph100%30.11 "Hg0 mi
10:00 PM30 °FLight rain. Low clouds.8 mph99%30.12 "Hg1 mi
9:00 PM28 °FSnow. Ice fog.6 mph98%30.14 "Hg1 mi
8:00 PM27 °FLight snow. Low clouds.6 mph99%30.17 "Hg1 mi
7:00 PM27 °FLight snow. Low clouds.7 mph98%30.18 "Hg1 mi
6:00 PM28 °FLight snow. Low clouds.6 mph97%30.20 "Hg1 mi
5:00 PM28 °FLight snow. Overcast.6 mph95%30.21 "Hg4 mi
4:00 PM28 °FLow clouds.7 mph94%30.24 "Hg9 mi
3:00 PM28 °FLight snow. Overcast.9 mph93%30.25 "Hg9 mi
2:00 PM27 °FLight snow. Overcast.8 mph91%30.28 "Hg5 mi
1:00 PM28 °FSnow flurries. Overcast.7 mph91%30.30 "Hg8 mi
Weather by CustomWeather, © 2014

See weather overviewHow to use our weather pages